Cloud_Cover
51 6 2 1 41 100 100 100 96 100 15 5 0 0 5 100 100 100 100 100 82 2 0 5 42 92 100 100 100 100 100 100 32 5 5 5 5 5 5 5 5 5 5 5 5 0 2 0 0 0 0 0 0 0
94 87 16 5 25 100 99 100 100 100 9 5 0 0 5 100 99 100 100 100 25 3 0 5 99 99 100 100 100 100 100 100 99 36 5 5 15 52 22 48 5 5 13 41 5 0 5 5 0 0 0 0 0 0
90 26 5 5 1 93 100 100 100 99 23 2 0 0 5 100 100 100 100 100 38 4 6 4 54 100 100 100 100 92 100 100 100 100 33 84 100 77 5 11 61 99 99 6 5 5 5 5 4 5 0 0 0 4
18 12 5 10 11 10 97 92 100 100 100 5 0 0 3 100 100 63 100 100 81 4 11 3 38 100 100 100 100 100 59 100 100 100 100 100 100 18 56 99 100 100 85 14 5 5 5 5 5 2 3 0 4 5
6 5 80 57 13 100 100 100 100 96 7 2 0 0 17 100 97 100 100 100 94 3 31 5 12 94 100 100 95 100 90 98 100 100 100 99 100 89 100 100 100 100 82 29 5 4 5 5 1 5 1 0 5 5
7 91 86 89 34 100 100 100 100 32 5 0 0 1 94 100 100 100 100 100 100 98 49 60 11 38 100 98 89 83 73 49 98 100 100 100 100 100 100 100 100 100 97 8 5 5 34 5 5 5 0 0 0 0
19 95 10 64 98 99 100 100 100 81 5 0 8 100 100 100 100 100 100 99 100 99 93 26 6 5 100 100 100 92 100 92 66 96 100 100 100 100 100 100 100 100 98 5 9 82 36 5 5 5 0 5 0 4
57 26 44 100 100 100 100 64 86 62 0 9 100 96 100 100 100 100 95 33 100 90 80 35 21 13 100 100 100 100 81 67 99 100 100 100 100 100 100 100 100 100 61 54 100 93 6 5 5 2 4 5 5 5
100 98 100 100 100 100 85 100 87 0 87 100 100 100 100 100 100 100 60 1 5 3 24 4 0 4 5 81 100 100 84 41 42 92 100 100 100 100 100 100 100 100 85 100 99 21 10 5 5 5 5 5 5 5
100 100 100 100 100 100 93 98 29 100 100 100 100 100 100 100 100 100 5 4 5 6 3 0 0 1 4 13 98 80 94 54 51 49 35 93 100 100 99 100 96 95 100 100 99 57 5 5 5 0 5 4 5 5
100 100 100 100 100 100 92 100 100 100 100 100 100 100 100 98 100 100 66 63 38 5 1 0 0 2 0 4 15 11 66 99 98 80 13 56 100 94 100 100 100 100 100 100 90 47 11 5 1 0 2 5 5 5
100 100 100 100 100 98 100 100 100 100 100 54 100 90 96 100 100 99 60 85 6 1 5 0 0 0 3 0 5 34 34 11 10 95 79 100 100 99 100 100 100 100 89 62 6 5 5 5 5 5 5 5 5 5
100 100 100 100 100 82 100 100 100 100 97 99 96 100 100 69 34 6 79 41 40 3 20 24 14 4 4 0 7 3 4 4 14 93 40 100 54 100 100 100 100 100 100 100 96 14 5 64 53 48 96 22 5 5
100 100 100 100 100 94 100 87 100 96 99 100 76 100 96 25 5 5 5 4 0 0 4 1 21 5 2 5 5 5 5 50 82 98 6 5 43 98 100 100 100 100 100 100 100 100 100 100 100 100 54 6 5 5
100 100 100 100 95 58 87 61 99 46 100 100 100 98 9 4 3 1 0 0 2 0 0 3 7 11 85 5 5 75 99 27 5 5 5 6 82 100 100 100 100 100 100 100 100 100 100 100 100 100 80 5 5 5
100 100 100 95 48 100 100 100 100 100 59 100 100 13 16 5 87 6 5 2 5 2 4 3 17 4 0 0 3 5 5 5 5 5 4 80 100 100 100 100 100 100 100 100 100 100 100 100 100 100 37 5 5 5
100 100 100 100 100 100 100 100 100 100 98 75 48 1 0 0 3 1 5 5 6 4 4 0 0 0 3 3 4 4 5 2 0 31 44 6 52 100 100 100 100 100 100 100 100 100 100 100 100 100 91 46 5 5
100 100 100 100 100 100 100 100 100 96 75 80 99 100 99 6 0 0 0 4 80 49 5 0 0 0 5 2 5 0 6 49 13 9 5 2 13 39 54 100 100 100 100 100 100 100 100 100 100 100 100 100 58 22
100 100 94 97 100 100 100 100 99 95 100 100 100 100 96 60 36 1 0 81 98 82 12 0 0 0 0 0 0 5 27 5 31 14 6 0 0 6 23 100 38 52 98 100 100 100 100 100 100 100 100 100 100 100
100 100 62 81 95 100 100 100 92 100 100 100 100 100 89 93 19 1 13 100 100 100 71 7 20 1 4 0 0 1 5 0 2 91 92 40 7 1 82 100 39 11 26 20 22 43 38 53 26 16 8 10 21 29
100 100 100 100 92 92 100 94 68 93 100 100 100 100 100 68 17 10 71 100 100 98 69 88 96 5 14 12 0 0 0 0 0 0 50 98 32 6 26 60 37 57 75 97 22 92 21 14 18 8 7 27 5 7
100 100 100 100 89 90 100 64 12 81 100 100 100 100 100 100 95 89 81 100 99 96 90 90 49 5 5 3 0 0 0 0 0 52 25 15 81 68 51 35 62 93 100 100 7 15 16 22 12 9 15 27 12 78
100 100 100 100 100 100 100 98 100 100 100 100 100 100 100 100 100 100 98 87 11 20 57 17 9 5 4 4 5 1 0 0 0 0 17 6 6 7 18 29 100 100 100 100 90 20 28 45 26 19 9 8 18 98
100 100 100 100 100 100 31 86 99 100 100 99 100 100 100 100 100 100 99 100 100 97 69 52 19 100 77 5 5 5 4 0 1 4 1 7 30 35 5 54 100 100 100 100 100 76 67 50 16 37 6 16 98 100
100 100 100 100 85 49 59 100 100 95 64 100 100 100 100 100 100 100 100 100 100 100 100 66 44 26 12 24 10 14 5 5 3 8 20 3 17 55 41 99 100 100 100 100 100 87 100 60 82 92 100 70 100 100
67 95 90 95 100 18 21 12 5 34 100 100 100 100 100 100 100 100 100 100 100 100 100 100 99 76 71 54 34 14 37 20 40 23 36 5 5 6 58 92 100 100 100 100 84 93 94 87 83 99 100 100 100 100
56 54 33 12 5 5 28 5 42 98 100 97 100 100 100 100 100 100 100 100 100 100 100 100 100 100 93 73 44 83 92 50 5 7 5 5 24 50 87 98 100 100 100 100 100 100 98 100 86 100 100 100 100 100
5 41 72 78 6 5 33 22 5 17 27 54 67 98 100 100 100 100 100 100 100 100 100 100 100 100 98 46 31 100 100 100 96 67 61 88 100 100 100 100 100 99 98 87 89 100 96 100 100 100 100 100 100 100
53 97 100 100 94 6 34 6 6 7 5 5 5 27 70 100 100 100 100 100 100 100 100 100 98 71 63 99 95 100 100 100 100 100 100 100 100 100 99 92 100 100 100 99 100 100 100 100 100 100 100 100 100 100
15 77 68 97 89 6 6 65 48 96 21 20 5 6 11 31 21 45 98 100 100 95 100 100 100 100 100 100 100 100 100 100 100 100 100 100 100 100 100 100 100 100 100 100 100 100 100 100 100 100 100 100 100 100
94 12 24 55 81 86 84 99 100 99 100 80 87 17 27 69 41 22 90 100 97 100 100 100 100 100 100 100 100 100 100 100 100 100 100 100 100 100 100 100 100 100 100 100 100 100 100 96 100 100 100 100 100 100
94 62 37 56 68 100 91 60 71 69 87 35 24 94 80 81 82 100 99 100 100 100 100 100 100 100 97 100 100 100 100 100 100 100 100 92 88 100 100 100 100 100 100 100 100 100 73 100 100 100 100 100 100 100
100 100 100 100 100 99 92 57 50 35 60 83 71 68 70 16 27 69 43 100 100 100 100 99 87 66 100 100 100 100 100 95 86 96 100 100 100 100 100 100 100 100 100 100 64 99 100 100 100 100 100 100 100 100